Simultaneous Nadir Overpasses (SNOs) Predictions

Prediction of SNOs between AURA and NPP Satellite Orbit:

Table of predicted SNOs for the next 14.0 days since TLE Epoch: 3/25/2012
Index Date (AURA) Time (AURA) AURA Lat,Lon Date (NPP) Time (NPP) NPP Lat,Lon Distance(km) Time Diff (sec)
1 03/26/2012 11:27:41 -72.52, 61.34 03/26/2012 11:26:28 -72.90, 59.05 86.21 73
2 03/26/2012 12:14:25 80.02,-102.71 03/26/2012 12:14:25 80.02,-102.61 1.95 0
3 03/29/2012 03:41:46 -79.86,-155.81 03/29/2012 03:40:40 -79.87,-155.69 2.46 66
4 03/29/2012 04:31:08 80.01, 13.02 03/29/2012 04:31:20 80.00, 12.98 0.85 12
5 03/31/2012 19:58:34 -79.87, -39.92 03/31/2012 19:57:34 -79.87, -39.88 0.78 60
6 03/31/2012 20:47:56 80.02, 128.92 03/31/2012 20:48:14 80.01, 128.79 2.63 18
7 04/03/2012 12:15:27 -79.87, 75.86 04/03/2012 12:14:27 -79.87, 75.87 0.30 60
8 04/03/2012 13:04:47 80.08,-114.72 04/03/2012 13:05:04 80.09,-114.56 3.10 17
9 04/06/2012 04:32:27 -79.86,-168.49 04/06/2012 04:31:21 -79.86,-168.46 0.56 66




NCC Satellite Simultaneous Nadir Overpasses (SNOs) Prediction Service
